User: anonymous   Login
Location: Chuathbaluk
(61.5726°N, 159.2454°W)
Time: 14:50:45
(UTC+00:00)
Language:

S-56A Canister/Altair - Orbit

View from above orbital plane
View from above orbital plane
View from above satellite
View from above satellite

Ground track
Ground track

The orbit data is extracted from the following two-line orbital elements,

1 00082U 61004B   21173.70339296 -.00000141  00000-0 -62581-4 0  9998
2 00082  38.8555 267.3979 1175559  70.4860 301.8853 12.26032551853255
Epoch (UTC): 22 June 2021 16:52:53
Eccentricity: 0.1175559
inclination: 38.8555°
perigee height: 632 km
apogee height: 2500 km
right ascension of ascending node: 267.3979°
argument of perigee: 70.4860°
revolutions per day: 12.26032551
mean anomaly at epoch: 301.8853°
orbit number at epoch: 85325

The dashed part of the orbit path shows where the satellite is in the earth's shadow,  

DLR